Volver al catálogo

H-2A DEB

ActivoHEO
NORAD 28243·DEBRIS·🇯🇵 Japan

Lanzado Feb 4, 2002 desde Tanegashima Space Center

Loading…

Próximos Pases (próximas 24 horas)

TLE

ActualizadoSource: Space-Track

Época: Sep 14, 2026, 02:38 UTC

1 28243U 02003E   26257.11016414  .00002169  00000-0  31134-2 0  9996
2 28243  28.4225 128.5863 7046856 145.6716 291.8102  2.51545234  7060

Sigue H-2A DEB en tiempo real con AllMySat

Download on the App Store